VE6KEE-13 Weather Reports


Display with metric or nautical units.
time (UTC)temp
F
wind
direction
speed
MPH
gust
MPH
rain 1hr
in
rain 24hr
in
rain mn
in
humidity
%
barometer
mb
20260504023356 60 1 8.0 16.0 0.00 0.00 0.00 24 1011.9
20260504021851 61 4 5.0 15.0 0.00 0.00 0.00 23 1011.6
20260504020351 62 357 8.0 16.0 0.00 0.00 0.00 22 1011.4
20260504014850 64 10 12.0 18.0 0.00 0.00 0.00 21 1010.9
20260504013350 66 343 11.0 12.0 0.00 0.00 0.00 21 1010.6
20260504011850 66 329 8.0 11.0 0.00 0.00 0.00 21 1010.2
20260504010350 67 355 11.0 11.0 0.00 0.00 0.00 21 1010.1
20260504004845 68 329 10.0 13.0 0.00 0.00 0.00 20 1010.0
20260504003345 69 326 9.0 14.0 0.00 0.00 0.00 20 1010.1
20260504001845 70 324 10.0 12.0 0.00 0.00 0.00 19 1010.0
20260504000346 70 330 14.0 17.0 0.00 0.00 0.00 19 1010.0
20260503234845 71 302 10.0 17.0 0.00 0.00 0.00 17 1009.7
20260503233345 72 316 15.0 15.0 0.00 0.00 0.00 17 1009.7
20260503231840 73 304 7.0 24.0 0.00 0.00 0.00 16 1009.6
20260503223339 75 287 16.0 21.0 0.00 0.00 0.00 14 1009.2
20260503221839 76 282 16.0 25.0 0.00 0.00 0.00 13 1009.1
20260503220344 77 283 13.0 22.0 0.00 0.00 0.00 13 1009.1
20260503214839 79 280 17.0 24.0 0.00 0.00 0.00 12 1009.1
20260503213334 80 275 14.0 22.0 0.00 0.00 0.00 11 1009.1
20260503211834 80 303 11.0 22.0 0.00 0.00 0.00 12 1009.3
20260503210334 80 266 16.0 24.0 0.00 0.00 0.00 12 1009.6
20260503204834 80 271 21.0 22.0 0.00 0.00 0.00 12 1009.5
20260503203339 79 275 13.0 19.0 0.00 0.00 0.00 13 1009.6
20260503201834 79 292 10.0 24.0 0.00 0.00 0.00 13 1009.9
20260503200334 79 266 13.0 24.0 0.00 0.00 0.00 13 1010.3
20260503194833 78 283 31.0 43.0 0.00 0.00 0.00 14 1010.5
20260503193328 78 330 13.0 26.0 0.00 0.00 0.00 15 1010.8
20260503191828 77 270 23.0 28.0 0.00 0.00 0.00 16 1011.1
20260503190333 76 277 10.0 34.0 0.00 0.00 0.00 16 1011.4
20260503184828 75 275 13.0 29.0 0.00 0.00 0.00 17 1011.4
20260503183328 74 292 9.0 30.0 0.00 0.00 0.00 17 1011.6
20260503181828 73 274 19.0 36.0 0.00 0.00 0.00 18 1011.8
20260503180328 72 265 20.0 25.0 0.00 0.00 0.00 19 1011.8
20260503174823 71 262 13.0 23.0 0.00 0.00 0.00 21 1012.3
20260503173328 70 268 9.0 13.0 0.00 0.00 0.00 22 1012.6
20260503171822 69 268 7.0 10.0 0.00 0.00 0.00 24 1012.8
20260503170322 70 253 3.0 5.0 0.00 0.00 0.00 23 1012.8
20260503150316 61 262 8.0 9.0 0.00 0.00 0.00 33 1013.8
20260503140312 52 216 3.0 6.0 0.00 0.00 0.00 46 1014.0
20260503130314 47 224 3.0 5.0 0.00 0.00 0.00 50 1014.5
20260503110303 48 228 4.0 6.0 0.00 0.00 0.00 48 1014.5
20260503090257 48 202 3.0 9.0 0.00 0.00 0.00 46 1015.3
20260503080254 49 178 3.0 5.0 0.00 0.00 0.00 44 1015.5
20260503071751 50 139 0.0 5.0 0.00 0.00 0.00 43 1015.9
20260503070256 50 270 0.0 3.0 0.00 0.00 0.00 42 1016.1
20260503060250 53 174 0.0 1.0 0.00 0.00 0.00 40 1016.2
20260503054747 53 173 1.0 2.0 0.00 0.00 0.00 39 1016.3
20260503053247 54 174 1.0 1.0 0.00 0.00 0.00 37 1016.3
20260503051745 54 225 0.0 4.0 0.00 0.00 0.00 37 1016.3
20260503050245 55 170 1.0 2.0 0.00 0.00 0.00 35 1016.3
20260503044744 56 171 2.0 3.0 0.00 0.00 0.00 34 1016.3
20260503043245 57 132 1.0 2.0 0.00 0.00 0.00 34 1016.4
20260503041743 58 173 0.0 1.0 0.00 0.00 0.00 33 1016.5
20260503040249 58 46 1.0 2.0 0.00 0.00 0.00 32 1016.3
20260503034741 59 0 0.0 0.0 0.00 0.00 0.00 30 1016.5
20260503033239 60 270 0.0 0.0 0.00 0.00 0.00 29 1016.6
20260503031739 61 225 0.0 1.0 0.00 0.00 0.00 29 1016.5
20260503030239 62 225 0.0 1.0 0.00 0.00 0.00 28 1016.4
20260503024739 63 315 0.0 0.0 0.00 0.00 0.00 27 1016.3